Погода Максимкин Яр

Погода Максимкин Яр : погода сейчас, прогноз погоды и архив. Всё, что Вы хотите узнать о погоде Максимкин Яр!

Поиск расширенной информации на нашем сайте:

Другие новости

Новости СМИ2

Главная страница сайта

Новости сайта

03.07.2017

Напоминаем, что на нашем специализированном сайте Метеоцентр.Азия вы можете получить высокодетализированные автоматические прогнозы погоды по пунктам России, СНГ и мира в авиационном формате (включающие направление и скорость ветра, видимость, явления погоды, количество и форму облачности, нижнюю и верхнюю границу облачности).


Погода Максимкин Яр - сегодня

Время (UTC), дата Ветер
(°,м/с) 
Видим.   Явления Облачность Т
(°С)
Тd
(°С)
f(%) Тe
(°С)
Pmin
(гПа)
dP
(гПа)
Po
(мм)
O2
(г/м3)
Тmin Tmax R s Состояние
почвы
00 20.04.18 180 (Ю) 20000 м    10/3 600 м верхняя 
[Sc|Cs]
-1.1 -9.4 53 -2  1014.6  0.2  751  305  -2.5      36  равномерный
мокрый или
старый снег
100% 
03 20.04.18 200 (Ю) 20000 м    10/0 средняя 
[As trans]
+1.8 -8.7 46 1014.8  0.4  751  302           
06 20.04.18 210 (ЮЗ) 3{11}  20000 м    10/0 средняя 
[As op]
+3.9 -9.6 37 +3  1015.2  0.4  752  300           
09 20.04.18 200 (Ю) 3{12}  20000 м    10/8 600 м средняя 
[Sc|As trans]
+5.8 -8.1 36 +5  1014.1  -0.9  751  297           
12 20.04.18 200 (Ю) 3{11}  20000 м    10/4 600 м верхняя 
[Sc|Ci fib]
+5.9 -7.6 37 +5  1013.3  -0.8  750  297    +6.8       
15 20.04.18 170 (Ю) 20000 м    10/0 верхняя 
[Ci fib]
+4.2 -7 44 +4  1012.3  -1.1  750  298           
18 20.04.18 190 (Ю) 20000 м    10/0 верхняя 
[Ci sp]
+4.7 -8.3 38 +3  1009.9  -2.3  748  297           
21 20.04.18 200 (Ю) 4{16}  20000 м    10/0 средняя 
[As op]
+4.3 -3 59 +3  1008.1  -1.8  746  296           
00 21.04.18 190 (Ю) 3{11}  10 км  слаб. дождь  10/0 средняя 
[As op]
+2.5 +0.4 86 +1  1007.8  -0.4  746  298  +2.5    0.9  34  равномерный
мокрый или
старый снег
100% 
09 21.04.18 180 (Ю) 20000 м  {ливн. осадки}  10/3 600 м средняя, верхняя 
[Sc|Ac As|Ci sp]
+9.7 +2.4 60 +9  1006.6  -0.4  746  290           
12 21.04.18 180 (Ю) 20000 м  {ливн. осадки}  10/6 600 м средняя 
[Sc|Ac und]
+10.8 -0.3 46 +10  1006.3  -0.3  745  289    +12.1     
15 21.04.18 170 (Ю) 20000 м  {ливн. осадки}  10/5 600 м кучево-дожд., средняя 
[Cb cap|Ac und]
+9.8 +0.3 52 +9  1005.9  -0.4  745  290           
18 21.04.18 190 (Ю) 20000 м  {ливн. осадки}  10/8 600 м кучево-дожд., средняя 
[Cb cap|Ac und]
+9.9 +1.6 56 +9  1005.7  -0.2  745  289           
21 21.04.18 170 (Ю) 3{10}  20000 м    10/10 600 м 
[Sc]
+8.7 +2.4 65 +8  1004.7  -1  744  290           
00 22.04.18 150 (ЮВ) 2{11}  20000 м  в посл. час ливневой дождь  10/9 600 м кучево-дожд., верхняя 
[Cb cap|Ci fib]
+7.2 +4.2 81 +7  1004  -0.8  744  291  +7.2    0.4  25  равномерный
мокрый или
старый снег
100% 
03 22.04.18 180 (Ю) 20000 м    10/0 средняя, верхняя 
[Ac As|Cs]
+11.9 -1.8 38 +12  1001.9  -1.9  742  287  +7.2         
06 22.04.18 170 (Ю) 20000 м    10/4 1000 м средняя 
[Sc|As trans]
+13.7 -4.3 28 +14  999.5  -2.3  740  285           
12 22.04.18 280 (З) 5{13}  20000 м  в посл. час ливневой дождь  10/10 600 м кучево-дожд. 
[Cb cap]
+3.2 +1.5 89 +1  1004.9  4.3  744  296    +14.9     
18 22.04.18 290 (З) 20000 м  {ливн. осадки}  10/10 600 м кучево-дожд. 
[Cb cap]
-1.5 -6.8 67 -3  1016.7  4.3  753  306           
21 22.04.18 тихо ()   20000 м    3/0 средняя 
[Ac As]
-5.4 -7 88 -5  1019.1  2.2  754  311           
00 23.04.18 тихо ()   20000 м    8/0 верхняя 
[Ci fib]
-5.5 -6.4 93 -6  1020.8  1.7  756  311  -7    0.0  17  мокрый или
старый снег
50-90% 
03 23.04.18 040 (СВ) 20000 м    1/0 верхняя 
[Ci fib]
-0.1 -8.3 54 +1  1021.5  0.9  756  306           
06 23.04.18 020 (С) 20000 м    10/0 верхняя 
[Ci sp]
+2.3 -11 37 +1  1019.8  -1.6  755  303           
09 23.04.18 030 (СВ) 20000 м    10/0 верхняя 
[Cs]
+4 -11.8 31 +3  1017.3  -2.4  753  300           
12 23.04.18 030 (СВ) 20000 м    10/3 600 м средняя 
[Sc|Ac und]
+2.5 -9 42 +2  1015.4  -1.9  752  301    +4.3       
Время (UTC), дата Ветер
(°,м/с) 
Видим.   Явления Облачность Т
(°С)
Тd
(°С)
f(%) Тe
(°С)
Pmin
(гПа)
dP
(гПа)
Po
(мм)
O2
(г/м3)
Тmin Tmax R s Состояние
почвы

Для получения пояснительной информации подведите курсор к названию столбца.

ПОГОДА Максимкин Яр - архив

Всё, что Вы хотите узнать о погоде Максимкин Яр - удобно и подробно!

Выберите нужную дату (начиная с 1 января 2015* года) и нажмите кнопку "Найти".
Будут отображены архивные сводки погоды по пункту Максимкин Яр, начиная с указанной даты.


Отображать данные в формате CSV (для использования в таблицах Excel)


Внимание! Наш архив погоды предназначен исключительно для личного некоммерческого использования в познавательных целях. Если Вам необходимы официальные справки о состоянии погоды (для производственных, юридических, коммерческих и т.п. целей), обращайтесь в органы Росгидромета.

*Примечание: данная дата относится к архиву по метеостанциям СССР (Россия, СНГ, Балтия).
Архив по метеостанциям Зарубежной Европы и Азии (кроме Китая) хранится 10 дней, по другим регионам земного шара (Китай, Африка, Америка, Австралия, Океания) - 1 день.

Максимкин Яр - район местоположения метеостанции


Название, широта, долгота, высота метеостанции:
Максимкин Яр 58.6°ш. 86.7°д. 105 м над ур. моря [Российская Федерация]

Дополнительная информация

В oтличие oт бoльшинства пoгoдных сайтoв мы публикуем пoдрoбную метеoинфoрмацию в детальнoм прoфессиoнальнoм фoрмате.

Характеристики температуры и влажнoсти вoздуха измеряются на высoте 2 м в тени вдали oт зданий и деревьев.
Скoрoсть ветра измеряется на высoте 10 м (на урoвне рoста челoвека скoрoсть ветра ниже в 1.5-2 раза). Если метеoстанция нахoдится в гoрoде или в лесу, тo скoрoсть ветра занижена на 2-4 м/с пo сравнению с oткрытым местoм. Скoрoсть ветра над акватoриями крупных рек и oзёр, а также на вершинах хoлмoв на 2-5 м/с выше, чем в oбычных услoвиях.
Атмoсфернoе давление в разных тoчках местнoсти мoжет значительнo oтличаться oт давления на метеoстанции, в зависимoсти oт услoвий рельефа (при пoдъёме на 10 м давление пoнижается примернo на 1 мм рт.ст.).